Location: Unspecified
(33.2407°S, 0.0000°E)
Time: 17:41:31
(UTC+00:00)

Envisat - Pass Details

Date: 21 May 2019
Orbit: 764 x 766 km, 98.1° (Epoch: 25 June)

Event Time Altitude Azimuth Distance (km) Brightness Sun altitude
Exits shadow 17:57:27 11° 80° (E) 2,248 4.9 -11.1°
Drops below altitude 10° 17:58:15 10° 71° (ENE) 2,312 5.0 -11.3°
Sets 18:02:25 0° 37° (NE) 3,225 6.0 -12.1°
